Flag for Germany Weather past 2 weeks in Euskirchen, North Rhine-Westphalia, Germany

Now
95 °F

Scattered clouds.


Feels Like: 98 °F
Forecast: 68 / 89 °F
Wind: 8 mph from East

Location: Noervenich

Current Time: Jul 2, 2015 at 7:42:51 PM

Latest Report: Jul 2, 2015 at 6:20 PM


Visibility: N/A

Pressure: 30.04 "Hg

Humidity: 39%

Dew point: 66 °F

Location of EuskirchenLocation

Historic Weather in Euskirchen — Graph

°F

Euskirchen temperature yesterday

Maximum temperature yesterday: 91 °F (at 4:20 PM)
Minimum temperature yesterday: 59 °F (at 5:20 AM)
Average temperature yesterday: 78 °F

Past Weeks' High & Low Weather Summary

 TemperatureHumidityPressure
High99 °F (Jul 2, 4:20 PM)100% (Jun 22, 11:20 PM)30.21 "Hg (Jun 22, 11:20 PM)
Low48 °F (Jun 22, 11:20 PM)25% (Jun 30, 6:20 PM)29.68 "Hg (Jun 22, 8:20 PM)
Average64 °F67%30.07 "Hg
* Reported Jun 17 6:20 PM — Jul 2 6:20 PM, Euskirchen, Weather by CustomWeather, © 2015

Note: Actual official high and low records may vary slightly from our data, if they occured in-between our weather recording intervals... More about our weather records

Advertising

Euskirchen weather history for previous 24 hours

 ConditionsComfort  
Time TempWeatherWind HumidityBarometerVisibility
6:20 PM
Thu, Jul 2
95 °FScattered clouds.8 mph39%30.04 "HgN/A
5:20 PM97 °FPassing clouds.6 mph37%30.04 "HgN/A
5:00 PM97 °FPassing clouds.7 mph37%30.04 "HgN/A
4:20 PM99 °FPassing clouds.5 mph35%30.04 "HgN/A
3:20 PM97 °FPassing clouds.7 mph37%30.04 "HgN/A
2:20 PM97 °FPassing clouds.6 mph37%30.04 "HgN/A
1:20 PM95 °FPassing clouds.6 mph39%30.04 "HgN/A
12:20 PM91 °FHot.6 mph44%30.04 "HgN/A
11:20 AM90 °FHot.3 mph46%30.07 "HgN/A
10:20 AM86 °FWarm.3 mph49%30.07 "HgN/A
9:20 AM82 °FWarm.5 mph55%30.07 "HgN/A
8:20 AM79 °FWarm.3 mph58%30.07 "HgN/A
7:20 AM73 °FMild.2 mph65%30.04 "HgN/A
6:20 AM72 °FMild.2 mph65%30.04 "HgN/A
5:20 AM72 °FMild.3 mph65%30.04 "HgN/A
4:20 AM72 °FMild.2 mph65%30.04 "HgN/A
3:20 AM72 °FMild.1 mph65%30.04 "HgN/A
2:20 AM73 °FMild.3 mph61%30.04 "HgN/A
1:20 AM75 °FMild.2 mph57%30.04 "HgN/A
12:20 AM75 °FMild.2 mph57%30.04 "HgN/A
11:20 PM
Wed, Jul 1
79 °FWarm.1 mph48%30.04 "HgN/A
10:20 PM81 °FPassing clouds.1 mph45%30.04 "HgN/A
9:20 PM84 °FPassing clouds.3 mph40%30.01 "HgN/A
8:20 PM88 °FPassing clouds.5 mph35%30.01 "HgN/A
7:20 PM90 °FPassing clouds.7 mph33%30.01 "HgN/A
Weather by CustomWeather, © 2015

See weather overviewHow to use our weather pages